User: anonymous   Login
Location: Unspecified
(0.0000°N, 0.0000°E)
Time: 05:56:27
(UTC+02:00)
Language:

Cosmos 1437 - Orbit

View from above orbital plane
View from above orbital plane
View from above satellite
View from above satellite

Ground track
Ground track

The orbit data is extracted from the following two-line orbital elements,

1 13770U 83003A   16151.33240530  .00008657  00000-0  17284-3 0  9997
2 13770  81.1601 256.9333 0008259 161.3206 198.8344 15.46635043827259
Epoch (UTC): 30 May 2016 07:58:39
Eccentricity: 0.0008259
inclination: 81.1601°
perigee height: 421 km
apogee height: 432 km
right ascension of ascending node: 256.9333°
argument of perigee: 161.3206°
revolutions per day: 15.46635043
mean anomaly at epoch: 198.8344°
orbit number at epoch: 82725

The dashed part of the orbit path shows where the satellite is in the earth's shadow,  

DLR